Tracking 26492 objects as of 8-Dec-2022
HD Live streaming from Space Station
objects crossing your sky now

STARLINK-4453

Track STARLINK-4453 now!
10-day predictions
STARLINK-4453 is classified as:


NORAD ID: 53497
Int'l Code: 2022-099AJ
Perigee: 568.4 km
Apogee: 571.8 km
Inclination: 97.7 °
Period: 95.9 minutes
Semi major axis: 6941 km
RCS: Unknown
Launch date: August 12, 2022
Source: United States (US)
Launch site: AIR FORCE WESTERN TEST RANGE (AFWTR)
aabbcc
Your satellite tracking list
Your tracking list is empty




NASA's NSSDC Master Catalog

Two Line Element Set (TLE):
1 53497U 22099AJ  22342.26565934  .00001458  00000-0  11807-3 0  9991
2 53497  97.6563 101.0882 0002443   8.9069 351.2198 15.01271253 18084
Source of the keplerian elements: AFSPC